sat.trackr.live / text

‹ back to catalog

STARLINK-11383 [DTC]

NORAD 61883 · 2024-204K

PAYLOAD ACTIVE UNKNOWN

§ Identity

Operator
Country
US
Launch date
2024-11-09
Launch site
AFWTR
Launch vehicle
Mass (kg)
RCS (m²)

Purposes: comms

External: N2YO · Heavens-Above · Gunter

§ Orbital elements

Epoch: 2026-09-21T20:00:58.336128Z

Period
91.74 min
Inclination
53.1585°
Eccentricity
0.0000788
Mean motion
15.69708368 rev/d
Perigee alt
359.2 km
Apogee alt
360.3 km
Semi-major
6,737.9 km
B*
6.6647e-8
RAAN
109.1689°
Arg perigee
99.3094°
Mean anomaly
260.8013°
Rev number
10,772

§ Raw data

STARLINK-11383 [DTC]1 61883U 24204K   26264.83400852 -.00000580  00000+0  66647-7 0  99972 61883  53.1585 109.1689 0000788  99.3094 260.8013 15.69708368107726

JSON: /api/v1/satellites/61883 · /tle

For live sub-satellite position, see the globe view (requires WebGL).

§ Visibility from observer

Set your observer location to see the next 7 days of passes ≥ 10°. The values pass through the URL so the page stays shareable.

No JS? Fill the form by hand. The geolocation button needs JavaScript.